Punta Gorda, FL

1:27 PM EDT on March 27, 2017 (GMT -0400)
Charlotte County

Weather History for KPGD - March, 2013

Change the Weather History Date:

Tuesday, March 19, 2013

  Actual Average Record
Temperature  
Mean Temperature 72 °F -  
Max Temperature 84 °F 78 °F 88 °F (2012)
Min Temperature 62 °F 56 °F 42 °F (2007)
Cooling Degree Days 7    
Growing Degree Days 22 (Base 50)    
Moisture  
Dew Point 64 °F    
Average Humidity 83    
Maximum Humidity 100    
Minimum Humidity 49    
Precipitation  
Precipitation 0.00 in - - ()
Sea Level Pressure  
Sea Level Pressure 29.98 in    
Wind  
Wind Speed 6 mph (NNW)    
Max Wind Speed 16 mph    
Max Gust Speed 25 mph    
Visibility 9 miles    
Events      
Averages and records for this station are not official NWS values.
T = Trace of Precipitation, MM = Missing Value Source: NWS Daily Summary

Daily Weather History Graph

Daily Weather History Graph

Search for Another Location

Airport or City:

Trip Planner

Search our weather history database for the weather conditions in past years. The results will help you decide how hot, cold, wet, or windy it might be!

Date:

Astronomy

Mar. 19, 2013 Rise Set
Actual Time 7:32 AM EDT 7:38 PM EDT
Civil Twilight 7:09 AM EDT 8:02 PM EDT
Nautical Twilight 6:42 AM EDT 8:29 PM EDT
Astronomical Twilight 6:15 AM EDT 8:56 PM EDT
Moon 12:51 PM EDT (3/19) 1:55 AM EDT (3/19)
Length of Visible Light 12h 52m
Length of Day
12h 06m
Waxing Crescent, 49% of the Moon is Illuminated
Mar 19
Waxing Crescent
Mar 19
First Quarter
Mar 27
Full
Apr 3
Last Quarter
Apr 10
New

Hourly Weather History & Observations

Time (EDT) Temp. Heat Index Dew Point Humidity Pressure Visibility Wind Dir Wind Speed Gust Speed Precip Events Conditions
12:53 AM 68.0 °F - 64.0 °F 87% 29.86 in 10.0 mi SSE 15.0 mph 25.3 mph 0.00 in   Mostly Cloudy
1:53 AM 68.0 °F - 64.0 °F 87% 29.91 in 10.0 mi South 5.8 mph - N/A   Clear
2:53 AM 66.9 °F - 64.0 °F 90% 29.92 in 10.0 mi Calm Calm - N/A   Clear
3:53 AM 64.9 °F - 64.0 °F 97% 29.93 in 10.0 mi NW 3.5 mph - N/A   Clear
4:53 AM 64.0 °F - 62.1 °F 93% 29.96 in 9.0 mi NNE 5.8 mph - N/A   Partly Cloudy
5:06 AM 64.4 °F - 64.4 °F 100% 29.97 in 8.0 mi North 4.6 mph - N/A   Mostly Cloudy
5:38 AM 64.4 °F - 64.4 °F 100% 29.98 in 7.0 mi North 4.6 mph - N/A   Overcast
5:51 AM 64.4 °F - 64.4 °F 100% 29.96 in 7.0 mi ENE 3.5 mph - N/A   Overcast
5:53 AM 64.9 °F - 64.0 °F 97% 29.96 in 7.0 mi NE 4.6 mph - N/A   Mostly Cloudy
6:09 AM 64.4 °F - 62.6 °F 94% 29.97 in 6.0 mi NE 5.8 mph - N/A   Scattered Clouds
6:22 AM 64.4 °F - 64.4 °F 100% 29.99 in 7.0 mi NE 6.9 mph - N/A   Mostly Cloudy
6:31 AM 64.4 °F - 64.4 °F 100% 29.99 in 7.0 mi NNE 6.9 mph - N/A   Mostly Cloudy
6:53 AM 64.0 °F - 63.0 °F 96% 29.99 in 8.0 mi East 3.5 mph - N/A   Mostly Cloudy
7:09 AM 64.4 °F - 62.6 °F 94% 29.99 in 7.0 mi East 4.6 mph - N/A   Partly Cloudy
7:53 AM 63.0 °F - 62.1 °F 97% 30.01 in 2.5 mi Calm Calm - N/A   Clear
8:04 AM 62.6 °F - 62.6 °F 100% 30.01 in 4.0 mi Calm Calm - N/A   Clear
8:53 AM 64.9 °F - 64.0 °F 97% 30.01 in 4.0 mi SSE 3.5 mph - N/A   Clear
9:53 AM 69.1 °F - 66.0 °F 90% 30.02 in 10.0 mi Calm Calm - N/A   Clear
10:53 AM 72.0 °F - 66.0 °F 81% 30.04 in 10.0 mi North 3.5 mph - N/A   Clear
11:53 AM 73.9 °F - 64.9 °F 73% 30.04 in 10.0 mi NW 5.8 mph - N/A   Mostly Cloudy
12:20 PM 75.2 °F - 64.4 °F 69% 30.02 in 10.0 mi NNW 5.8 mph - N/A   Scattered Clouds
12:33 PM 75.2 °F - 64.4 °F 69% 30.03 in 10.0 mi NNW 5.8 mph - N/A   Mostly Cloudy
12:43 PM 77.0 °F - 64.4 °F 65% 30.03 in 10.0 mi NNE 5.8 mph - N/A   Scattered Clouds
12:50 PM 77.0 °F - 64.4 °F 65% 30.03 in 10.0 mi NW 4.6 mph - N/A   Mostly Cloudy
12:53 PM 75.9 °F - 64.0 °F 67% 30.04 in 10.0 mi North 6.9 mph - N/A   Mostly Cloudy
1:04 PM 78.8 °F - 64.4 °F 61% 30.04 in 10.0 mi North 6.9 mph - N/A   Scattered Clouds
1:53 PM 79.0 °F - 64.0 °F 60% 30.01 in 10.0 mi Calm Calm - N/A   Clear
2:53 PM 82.0 °F 83.4 °F 64.0 °F 54% 29.99 in 10.0 mi Variable 3.5 mph - N/A   Clear
3:53 PM 82.9 °F 83.7 °F 62.1 °F 49% 29.94 in 10.0 mi SSW 4.6 mph - N/A   Clear
4:53 PM 81.0 °F 82.7 °F 64.9 °F 58% 29.93 in 10.0 mi WSW 16.1 mph - N/A   Clear
5:53 PM 77.0 °F - 64.9 °F 66% 29.95 in 10.0 mi WSW 12.7 mph - N/A   Clear
6:53 PM 73.0 °F - 64.9 °F 76% 29.96 in 10.0 mi West 11.5 mph - N/A   Clear
7:53 PM 71.1 °F - 64.0 °F 78% 29.97 in 10.0 mi West 10.4 mph - N/A   Clear
8:53 PM 69.1 °F - 64.9 °F 87% 29.99 in 10.0 mi WNW 6.9 mph - N/A   Clear
9:53 PM 66.9 °F - 64.9 °F 93% 29.99 in 10.0 mi WSW 4.6 mph - N/A   Clear
10:53 PM 64.9 °F - 63.0 °F 93% 30.00 in 10.0 mi Calm Calm - N/A   Clear
11:53 PM 66.9 °F - 64.9 °F 93% 30.01 in 10.0 mi WNW 4.6 mph - N/A   Overcast